Simultaneous Nadir Overpasses (SNOs) Predictions

Prediction of SNOs between GOES-16 and AQUA Satellite Orbit:

Table of predicted SNOs for the next 14.0 days since TLE Epoch: 1/25/2020
Index Date Time (GOES-16) GOES-16 Lat,Lon AQUA Lat,Lon Distance(km) Time Diff (sec)
1 01/26/2020 18:26:32 -0.06, -75.20 0.40, -73.13 235.15 80
2 01/27/2020 06:50:26 0.07, -75.19 0.71, -78.29 351.43 80
3 01/29/2020 06:38:16 0.07, -75.20 0.09, -75.33 14.26 80
4 01/31/2020 06:23:25 0.07, -75.22 -0.52, -72.37 323.53 80
5 01/31/2020 18:47:29 -0.07, -75.23 -0.57, -77.56 265.65 80
6 02/02/2020 18:32:38 -0.08, -75.25 0.06, -74.61 72.73 80
7 02/04/2020 18:20:27 -0.08, -75.27 0.68, -71.65 411.34 80
8 02/05/2020 06:44:22 0.09, -75.27 0.43, -76.80 174.75 80
9 02/07/2020 06:29:31 0.09, -75.29 -0.19, -73.84 164.08 80
10 02/07/2020 18:53:36 -0.10, -75.30 -0.88, -79.04 424.88 80




NCC Satellite Simultaneous Nadir Overpasses (SNOs) Prediction Service
